Other Public Products
Issued by NWS Charleston, SC

Current Version | Previous Version | Text Only | Print | Product List | Glossary Off
Versions: 1 2 3 4 5 6 7 8 9 10 11 12 13 14 15 16 17 18 19 20 21 22 23 24 25 26 27 28 29 30 31 32 33 34 35 36 37 38 39 40 41 42 43 44 45 46 47 48 49 50

000
FPUS82 KCHS 091027
OPUCHS

TEST...KCHS/KSAV Gateway Observations...TEST
National Weather Service Charleston SC
500 AM EST FRI DEC 09 2016

NOTE: "fair" indicates few or no clouds below 12,000 feet with no
significant weather and/or obstructions to visibility.

SCZ050-WAZ558-NCZ071-TXZ119-213-PAZ071-DCZ001-FLZ074-172-MI076-
NYZ176-178-MAZ016-IL014-TNZ027-NJZ106-GAZ044-MD014-091100-
...Gateway Observations for Charleston International...

CITY           SKY/WX    TMP DP  RH WIND       PRES   REMARKS
Chas Airport   CLOUDY    38  28  67 N8        30.30R WCI  32
Seattle        FLURRIES  32  28  85 SE5       29.96S WCI  27
Charlotte      PTCLDY    31  14  49 N9        30.32R WCI  23
Dallas DFW     PTCLDY    25  17  72 N7        30.64F WCI  17
Dallas Love    PTCLDY    29  17  61 N6        30.65F WCI  23
Philladelphia  CLEAR     31  15  52 W13       30.15F WCI  21
Wash National  PTCLDY    31  12  45 NW14      30.25S WCI  21
Baltimore      CLEAR     28  14  55 W15G23    30.21F WCI  16
Miami          CLOUDY    70  63  78 N6        30.11S
Detroit        FLURRIES  26  22  84 SW10      30.31R WCI  16
Newark         PTCLDY    32  17  54 W16       30.06R WCI  21
Laguardia      PTCLDY    34  18  52 W15G21    30.04S WCI  24
J F K          CLEAR     33  17  51 W16G24    30.06R WCI  23
Boston Logan   CLEAR     32  18  56 SW13G20   29.85S WCI  22
Ft. Lauderdale CLOUDY    71  61  70 N8        30.10S
Chicago O`Hare CLOUDY    21  16  81 W8        30.45R WCI  11
Chicago Midway MOCLDY    21  14  74 W9        30.46R WCI  11
Houston Bush   CLOUDY    38  26  62 N13       30.57F WCI  30
Houston Hobby  CLOUDY    41  27  57 N17G23    30.56R
Nashville      CLOUDY    25  15  66 NW7       30.55S WCI  17
Atlanta        CLEAR     29  16  58 NW12      30.38S WCI  19

$$

GAZ044-118-TXZ119-213-NCZ071-DCZ001-MDZ014-506-PAZ021-071-NJZ106-
NYZ176-178-MAZ106-OHZ011-021-055-MIZ076-KYZ091-ILZ014-INZ047-
MNZ060-091100-
...Gateway Observations for Savannah International...

CITY           SKY/WX    TMP DP  RH WIND       PRES   REMARKS
Savannah Arpt  MOCLDY    42  26  53 N8        30.33R
Atlanta        CLEAR     29  16  58 NW12      30.38S WCI  19
Charlotte      PTCLDY    31  14  49 N9        30.32R WCI  23
Dallas DFW     PTCLDY    25  17  72 N7        30.64F WCI  17
Houston Bush   CLOUDY    38  26  62 N13       30.57F WCI  30
Wash National  PTCLDY    31  12  45 NW14      30.25S WCI  21
Wash Dulles    PTCLDY    28  11  48 NW9       30.25R WCI  19
Baltimore      CLEAR     28  14  55 W15G23    30.21F WCI  16
Philadelphia   CLEAR     31  15  52 W13       30.15F WCI  21
Newark         PTCLDY    32  17  54 W16       30.06R WCI  21
Laguardia      PTCLDY    34  18  52 W15G21    30.04S WCI  24
J F K          CLEAR     33  17  51 W16G24    30.06R WCI  23
Boston         CLEAR     32  18  56 SW13G20   29.85S WCI  22
Pittsburg      FLURRIES  23  17  78 W15G22    30.27R WCI  10
Akron          FLURRIES  22  16  78 W8        30.30R WCI  12
Cleveland      FLURRIES  25  17  72 W15       30.33S WCI  13
Cincinnati     CLOUDY    21  15  78 W9        30.47S WCI  11
Columbus         N/A     21  15  76 W10       30.43S WCI  10
Detroit        FLURRIES  26  22  84 SW10      30.31R WCI  16
Chicago O`Hare CLOUDY    21  16  81 W8        30.45R WCI  11
Minneapolis    CLOUDY    15   9  76 NW7       30.54S WCI   5
Indianapolis   FLURRIES  21  16  81 W9        30.49S WCI  11

$$




USA.gov is the U.S. government's official web portal to all federal, state and local government web resources and services.